Location: Bern�tre
(50.1974°N, 2.0915°E)
Time: 15:30:57
(UTC+00:00)

Cosmos 2263 Rocket - Pass Details

Date: 18 September 2020
Orbit: 822 x 850 km, 71.0° (Epoch: 24 October)

Event Time Altitude Azimuth Distance (km) Brightness Sun altitude
Rises 19:31:28 0° 222° (SW) 3,349 5.6 -15.4°
Reaches altitude 10° 19:33:57 10° 227° (SW) 2,421 4.9 -15.8°
Maximum altitude 19:39:23 55° 305° (NW) 988 2.9 -16.6°
Drops below altitude 10° 19:44:54 10° 23° (NNE) 2,450 4.6 -17.4°
Sets 19:47:25 0° 28° (NNE) 3,391 5.3 -17.8°
